Camp Pendleton, CA

3:52 AM PST on December 16, 2017 (GMT -0800)
Camp Pendleton Marine Corps Air Station

Weather History for KNFG - February, 2013

Change the Weather History Date:

Friday, February 8, 2013

  Actual Average Record
Temperature  
Mean Temperature 50 °F -  
Max Temperature 57 °F 64 °F 88 °F (2016)
Min Temperature 42 °F 39 °F 30 °F (2001)
Degree Days  
Heating Degree Days 15    
Moisture  
Dew Point 40 °F    
Average Humidity 67    
Maximum Humidity 82    
Minimum Humidity 55    
Precipitation  
Precipitation 0.11 in - - ()
Sea Level Pressure  
Sea Level Pressure 29.97 in    
Wind  
Wind Speed 6 mph (WSW)    
Max Wind Speed 13 mph    
Max Gust Speed 22 mph    
Visibility 10 miles    
Events Rain    
Averages and records for this station are not official NWS values.
T = Trace of Precipitation, MM = Missing Value Source: NWS Daily Summary

Daily Weather History Graph

Daily Weather History Graph

Search for Another Location

Airport or City:

Trip Planner

Search our weather history database for the weather conditions in past years. The results will help you decide how hot, cold, wet, or windy it might be!

Date:

Astronomy

Feb. 08, 2013 Rise Set
Actual Time 6:39 AM PST 5:28 PM PST
Civil Twilight 6:13 AM PST 5:53 PM PST
Nautical Twilight 5:44 AM PST 6:23 PM PST
Astronomical Twilight 5:15 AM PST 6:52 PM PST
Moon 5:09 AM PST (2/8) 4:08 PM PST (2/8)
Length of Visible Light 11h 40m
Length of Day
10h 48m
Waning Crescent, 3% of the Moon is Illuminated
Feb 8
Waning Crescent
Feb 9
New
Feb 17
First Quarter
Feb 25
Full
Mar 4
Last Quarter

Hourly Weather History & Observations

Time (PST) Temp. Windchill Dew Point Humidity Pressure Visibility Wind Dir Wind Speed Gust Speed Precip Events Conditions
12:54 AM 54.0 °F - 42.1 °F 64% 30.02 in 10.0 mi South 5.8 mph - N/A   Overcast
1:54 AM 55.0 °F - 44.1 °F 67% 30.01 in 10.0 mi SW 5.8 mph - N/A   Mostly Cloudy
2:54 AM 54.0 °F - 43.0 °F 66% 30.00 in 10.0 mi West 4.6 mph - 0.00 in Rain Light Rain
3:54 AM 52.0 °F - 39.9 °F 63% 30.00 in 10.0 mi West 4.6 mph - 0.00 in   Mostly Cloudy
4:54 AM 50.0 °F - 41.0 °F 71% 30.00 in 10.0 mi WSW 5.8 mph - 0.02 in   Mostly Cloudy
5:54 AM 50.0 °F - 37.0 °F 61% 30.01 in 10.0 mi WSW 4.6 mph - N/A   Scattered Clouds
6:54 AM 48.9 °F - 39.9 °F 71% 30.02 in 10.0 mi Calm Calm - 0.00 in   Mostly Cloudy
7:54 AM 50.0 °F - 41.0 °F 71% 30.03 in 10.0 mi NNE 4.6 mph - N/A   Mostly Cloudy
8:54 AM 52.0 °F - 41.0 °F 66% 30.03 in 6.0 mi West 9.2 mph - 0.00 in Rain Light Rain
9:54 AM 55.0 °F - 39.0 °F 55% 30.02 in 10.0 mi WSW 8.1 mph - 0.00 in   Mostly Cloudy
10:54 AM 52.0 °F - 41.0 °F 66% 30.01 in 10.0 mi SW 9.2 mph - 0.00 in Rain Light Rain
11:54 AM 57.0 °F - 41.0 °F 55% 29.98 in 10.0 mi SW 9.2 mph 17.3 mph 0.00 in   Mostly Cloudy
12:54 PM 54.0 °F - 41.0 °F 62% 29.96 in 10.0 mi WSW 12.7 mph 18.4 mph 0.03 in   Mostly Cloudy
1:54 PM 53.1 °F - 42.1 °F 66% 29.94 in 6.0 mi WSW 8.1 mph 20.7 mph 0.00 in Rain Light Rain
2:54 PM 54.0 °F - 39.9 °F 59% 29.92 in 10.0 mi WSW 11.5 mph 21.9 mph 0.00 in   Mostly Cloudy
3:54 PM 53.1 °F - 37.0 °F 55% 29.92 in 10.0 mi WSW 12.7 mph 20.7 mph N/A   Mostly Cloudy
4:54 PM 51.1 °F - 39.0 °F 63% 29.91 in 10.0 mi West 6.9 mph - N/A   Mostly Cloudy
5:54 PM 50.0 °F - 39.0 °F 66% 29.91 in 10.0 mi WSW 8.1 mph - 0.00 in   Mostly Cloudy
6:54 PM 48.0 °F - 39.0 °F 71% 29.92 in 10.0 mi SW 4.6 mph - 0.01 in   Mostly Cloudy
7:54 PM 46.9 °F - 37.9 °F 71% 29.91 in 10.0 mi Calm Calm - 0.00 in   Mostly Cloudy
8:54 PM 45.0 °F 43.5 °F 39.0 °F 80% 29.92 in 10.0 mi NNE 3.5 mph - 0.05 in Rain Light Rain
9:54 PM 44.1 °F - 39.0 °F 82% 29.94 in 10.0 mi Calm Calm - 0.00 in   Mostly Cloudy
10:54 PM 43.0 °F - 37.9 °F 82% 29.94 in 10.0 mi Calm Calm - N/A   Clear
11:54 PM 42.1 °F - 37.0 °F 82% 29.95 in 10.0 mi Calm Calm - N/A   Mostly Cloudy